• In Portugal
  • List of Countries
  • For 7 days
  • Water Temperature
  • Satellite Maps
  • Weather Map
  • Weather Widgets
  • user-avatar
    Login

    Hourly Weather Bugojno

    Today, 25 September, Tuesday

    Time Temperature Precipitation Wind Pressure Humidity
    00:00 +4°C° 0 mm 3 mps 719 mmHg 84%
    01:00 +4°C° 0 mm 3 mps 719 mmHg 85%
    02:00 +4°C° 0 mm 3 mps 719 mmHg 86%
    03:00 +4°C° 0 mm 3 mps 719 mmHg 86%
    04:00 +4°C° 0 mm 3 mps 720 mmHg 87%
    05:00 +4°C° 0 mm 3 mps 720 mmHg 84%
    06:00 +4°C° 0 mm 3 mps 720 mmHg 82%
    07:00 +5°C° 0 mm 3 mps 721 mmHg 80%
    08:00 +6°C° 0 mm 4 mps 721 mmHg 72%
    09:00 +8°C° 0 mm 4 mps 721 mmHg 64%
    10:00 +9°C° 0 mm 5 mps 721 mmHg 55%
    11:00 +10°C° 0 mm 5 mps 721 mmHg 52%
    12:00 +11°C° 0 mm 6 mps 721 mmHg 48%
    13:00 +11°C° 0 mm 6 mps 721 mmHg 44%
    14:00 +11°C° 0 mm 6 mps 721 mmHg 46%
    15:00 +10°C° 0 mm 6 mps 721 mmHg 47%
    16:00 +10°C° 0 mm 5 mps 721 mmHg 49%
    17:00 +8°C° 0 mm 5 mps 721 mmHg 55%
    18:00 +6°C° 0 mm 4 mps 721 mmHg 62%
    19:00 +5°C° 0 mm 3 mps 722 mmHg 68%
    20:00 +4°C° 0 mm 3 mps 722 mmHg 70%
    21:00 +4°C° 0 mm 3 mps 722 mmHg 72%
    22:00 +3°C° 0 mm 3 mps 723 mmHg 75%
    23:00 +3°C° 0 mm 3 mps 723 mmHg 76%

    Tomorrow, 26 September, Wednesday

    Time Temperature Precipitation Wind Pressure Humidity
    00:00 +3°C° 0 mm 2 mps 723 mmHg 78%
    01:00 +3°C° 0 mm 2 mps 723 mmHg 79%
    02:00 +3°C° 0 mm 2 mps 723 mmHg 81%
    03:00 +2°C° 0 mm 2 mps 723 mmHg 83%
    04:00 +2°C° 0 mm 2 mps 723 mmHg 85%
    05:00 +3°C° 0 mm 2 mps 723 mmHg 81%
    06:00 +3°C° 0 mm 2 mps 724 mmHg 76%
    07:00 +4°C° 0 mm 2 mps 724 mmHg 72%
    08:00 +7°C° 0 mm 3 mps 724 mmHg 62%
    09:00 +9°C° 0 mm 3 mps 725 mmHg 51%
    10:00 +11°C° 0 mm 3 mps 725 mmHg 41%
    11:00 +12°C° 0 mm 3 mps 725 mmHg 39%
    12:00 +13°C° 0 mm 3 mps 725 mmHg 37%
    13:00 +14°C° 0 mm 4 mps 724 mmHg 36%
    14:00 +14°C° 0 mm 3 mps 724 mmHg 38%
    15:00 +13°C° 0 mm 3 mps 724 mmHg 39%
    16:00 +14°C° 0 mm 2 mps 723 mmHg 41%
    17:00 +12°C° 0 mm 2 mps 723 mmHg 49%
    18:00 +8°C° 0 mm 2 mps 723 mmHg 57%
    19:00 +7°C° 0 mm 1 mps 723 mmHg 64%
    20:00 +6°C° 0 mm 1 mps 723 mmHg 65%
    21:00 +6°C° 0 mm 1 mps 723 mmHg 67%
    22:00 +6°C° 0 mm 1 mps 723 mmHg 68%
    23:00 +5°C° 0 mm 1 mps 723 mmHg 67%

    Day after tomorrow, 27 September, Thursday

    Time Temperature Precipitation Wind Pressure Humidity
    00:00 +5°C° 0 mm 1 mps 723 mmHg 67%
    01:00 +5°C° 0 mm 1 mps 723 mmHg 66%
    02:00 +5°C° 0 mm 1 mps 723 mmHg 64%
    03:00 +5°C° 0 mm 1 mps 722 mmHg 63%
    04:00 +5°C° 0 mm 1 mps 722 mmHg 61%
    05:00 +6°C° 0 mm 1 mps 722 mmHg 58%
    06:00 +7°C° 0 mm 1 mps 722 mmHg 55%
    07:00 +8°C° 0 mm 1 mps 722 mmHg 52%
    08:00 +11°C° 0 mm 1 mps 722 mmHg 45%
    09:00 +14°C° 0 mm 2 mps 722 mmHg 38%
    10:00 +17°C° 0 mm 2 mps 722 mmHg 31%
    11:00 +18°C° 0 mm 2 mps 722 mmHg 29%
    12:00 +19°C° 0 mm 2 mps 722 mmHg 28%
    13:00 +20°C° 0 mm 2 mps 721 mmHg 27%
    14:00 +19°C° 0 mm 2 mps 721 mmHg 30%
    15:00 +18°C° 0 mm 2 mps 720 mmHg 34%
    16:00 +18°C° 0 mm 2 mps 719 mmHg 38%
    17:00 +15°C° 0 mm 2 mps 719 mmHg 43%
    18:00 +13°C° 0 mm 2 mps 719 mmHg 48%
    19:00 +9°C° 0 mm 2 mps 718 mmHg 54%
    20:00 +9°C° 0 mm 2 mps 718 mmHg 54%
    21:00 +8°C° 0 mm 2 mps 718 mmHg 55%
    22:00 +8°C° 0 mm 2 mps 718 mmHg 56%
    23:00 +8°C° 0 mm 2 mps 717 mmHg 55%

    28 September, Friday

    Time Temperature Precipitation Wind Pressure Humidity
    00:00 +8°C° 0 mm 1 mps 717 mmHg 54%
    01:00 +8°C° 0 mm 1 mps 717 mmHg 53%
    02:00 +8°C° 0 mm 1 mps 716 mmHg 52%
    03:00 +8°C° 0 mm 1 mps 716 mmHg 51%
    04:00 +8°C° 0 mm 1 mps 715 mmHg 50%
    05:00 +9°C° 0 mm 1 mps 715 mmHg 51%
    06:00 +10°C° 0 mm 1 mps 715 mmHg 51%
    07:00 +11°C° 0 mm 1 mps 715 mmHg 51%
    08:00 +13°C° 0 mm 2 mps 715 mmHg 47%
    09:00 +16°C° 0 mm 2 mps 715 mmHg 43%
    10:00 +19°C° 0 mm 2 mps 715 mmHg 38%
    11:00 +20°C° 0 mm 2 mps 715 mmHg 38%
    12:00 +21°C° 0 mm 2 mps 714 mmHg 38%
    13:00 +21°C° 0 mm 2 mps 714 mmHg 38%
    14:00 +21°C° 0 mm 2 mps 714 mmHg 41%
    15:00 +20°C° 0 mm 2 mps 713 mmHg 43%
    16:00 +20°C° 0 mm 2 mps 713 mmHg 46%
    17:00 +17°C° 0 mm 2 mps 713 mmHg 54%
    18:00 +15°C° 0 mm 1 mps 712 mmHg 62%
    19:00 +12°C° 0 mm 1 mps 712 mmHg 69%
    20:00 +11°C° 0 mm 1 mps 712 mmHg 70%
    21:00 +11°C° 0 mm 1 mps 712 mmHg 72%
    22:00 +10°C° 0 mm 1 mps 712 mmHg 73%
    23:00 +10°C° 0 mm 1 mps 712 mmHg 73%

    29 September, Saturday

    Time Temperature Precipitation Wind Pressure Humidity
    00:00 +10°C° 0 mm 1 mps 712 mmHg 73%
    01:00 +9°C° 0 mm 1 mps 712 mmHg 74%
    02:00 +9°C° 0 mm 1 mps 712 mmHg 74%
    03:00 +9°C° 0 mm 1 mps 712 mmHg 74%
    04:00 +9°C° 0 mm 1 mps 712 mmHg 74%
    05:00 +10°C° 0 mm 1 mps 712 mmHg 72%
    06:00 +10°C° 0 mm 1 mps 712 mmHg 69%
    07:00 +11°C° 0 mm 1 mps 713 mmHg 67%
    08:00 +14°C° 0 mm 1 mps 713 mmHg 60%
    09:00 +16°C° 0 mm 2 mps 713 mmHg 52%
    10:00 +19°C° 0 mm 2 mps 714 mmHg 45%
    11:00 +19°C° 0 mm 2 mps 714 mmHg 45%
    12:00 +20°C° 0 mm 3 mps 714 mmHg 44%
    13:00 +21°C° 0 mm 3 mps 713 mmHg 44%
    14:00 +20°C° 0 mm 3 mps 713 mmHg 48%
    15:00 +19°C° 0 mm 3 mps 713 mmHg 52%
    16:00 +18°C° 0 mm 3 mps 713 mmHg 56%
    17:00 +17°C° 0 mm 3 mps 713 mmHg 63%
    18:00 +15°C° 0 mm 2 mps 714 mmHg 69%
    19:00 +13°C° 0 mm 2 mps 714 mmHg 76%
    20:00 +13°C° 0.1 mm 2 mps 714 mmHg 79%
    21:00 +13°C° 0.1 mm 2 mps 714 mmHg 81%
    22:00 +12°C° 0.1 mm 1 mps 714 mmHg 84%
    23:00 +12°C° 0.1 mm 1 mps 714 mmHg 86%

    30 September, Sunday

    Time Temperature Precipitation Wind Pressure Humidity
    00:00 +11°C° 0.1 mm 1 mps 714 mmHg 87%
    01:00 +11°C° 0.1 mm 1 mps 714 mmHg 89%
    02:00 +11°C° 0 mm 1 mps 714 mmHg 90%
    03:00 +10°C° 0 mm 1 mps 714 mmHg 91%
    04:00 +10°C° 0 mm 1 mps 714 mmHg 92%
    05:00 +10°C° 0 mm 1 mps 714 mmHg 90%
    06:00 +10°C° 0 mm 1 mps 715 mmHg 89%
    07:00 +11°C° 0 mm 1 mps 715 mmHg 87%
    08:00 +13°C° 0 mm 1 mps 715 mmHg 78%
    09:00 +16°C° 0 mm 1 mps 715 mmHg 68%
    10:00 +19°C° 0 mm 1 mps 715 mmHg 59%
    11:00 +20°C° 0 mm 1 mps 715 mmHg 55%
    12:00 +21°C° 0 mm 1 mps 715 mmHg 51%
    13:00 +22°C° 0 mm 1 mps 715 mmHg 47%
    14:00 +22°C° 0.1 mm 1 mps 715 mmHg 51%
    15:00 +21°C° 0.1 mm 1 mps 714 mmHg 55%
    16:00 +20°C° 0.1 mm 1 mps 714 mmHg 59%
    17:00 +18°C° 0 mm 1 mps 714 mmHg 66%
    18:00 +15°C° 0 mm 1 mps 714 mmHg 73%
    19:00 +12°C° 0 mm 0 mps 714 mmHg 80%
    20:00 +12°C° 0 mm 0 mps 714 mmHg 82%
    21:00 +11°C° 0 mm 0 mps 714 mmHg 83%
    22:00 +12°C° 0 mm 1 mps 714 mmHg 84%
    23:00 +12°C° 0 mm 1 mps 714 mmHg 84%
    Show more